Regional Weather Roundup
Issued by NWS Little Rock, AR

Home | Current Version | Previous Version | Text Only | Print | Product List | Glossary On
Versions: 1 2 3 4 5 6 7 8 9 10 11 12 13 14 15 16 17 18 19 20 21 22 23 24 25 26 27 28 29 30 31 32 33
000
ASUS44 KLZK 300205
RWRLZK

WEATHER ROUNDUP FOR ARKANSAS
NATIONAL WEATHER SERVICE LITTLE ROCK AR
900 PM CDT SAT APR 29 2017

NOTE: "FAIR" INDICATES FEW OR NO CLOUDS BELOW 12,000 FEET WITH NO
SIGNIFICANT WEATHER AND/OR OBSTRUCTIONS TO VISIBILITY.

ARZ001-003-010-029-300300-
NORTHWEST ARKANSAS

CITY           SKY/WX    TMP DP  RH WIND       PRES   REMARKS
FAYETTEVILLE   TSTM      63  63 100 VRB7      29.69R FOG
FORT SMITH     CLOUDY    70  65  84 CALM      29.60R
HARRISON       CLOUDY    63  63 100 N5        29.70F
BENTONVILLE    CLOUDY    64  63  94 SW12G20   29.72R THUNDER
ROGERS         TSTM      63  62  97 SE12      29.73R FOG
SILOAM SPGS    CLOUDY    64  61  88 SE13G20   29.65F THUNDER
HIGHFILL       TSTM      64  63  96 S15G26    29.66R FOG
SPRINGDALE     TSTM      63  63 100 E5        29.72R FOG
$$

ARZ004-005-016-300300-
NORTH CENTRAL ARKANSAS

CITY           SKY/WX    TMP DP  RH WIND       PRES   REMARKS
BATESVILLE     CLOUDY    75  63  64 SE10G22   29.74R
FLIPPIN        CLOUDY    66  63  88 CALM      29.69F
MTN HOME       TSTM      65  65 100 CALM      29.72S FOG
$$

ARZ040-041-300300-
WEST CENTRAL ARKANSAS

CITY           SKY/WX    TMP DP  RH WIND       PRES   REMARKS
MENA           NOT AVBL
$$

ARZ009-017-025-026-028-300300-
NORTHEAST ARKANSAS

CITY           SKY/WX    TMP DP  RH WIND       PRES   REMARKS
JONESBORO      TSTM      68  65  90 S16G26    29.82S
NEWPORT        TSTM      68  65  90 MISG      29.76R
WALNUT RIDGE   CLOUDY    70  63  78 S30G36    29.77R
BLYTHEVILLE    TSTM      67  66  97 SW23G38   29.90R FOG
$$

ARZ022-023-033-042-044-300300-
CENTRAL ARKANSAS

CITY           SKY/WX    TMP DP  RH WIND       PRES   REMARKS
LITTLE ROCK    TSTM      71  70  96 E5        29.71R FOG
N LITTLE ROCK    N/A     71  68  92 S6        29.69R
JACKSONVILLE   CLOUDY    71  71 100 E5        29.72R
CONWAY           N/A     75  66  73 S10G16    29.69R
SEARCY         CLOUDY    70  67  90 SE12      29.76R
HOT SPRINGS    CLOUDY    69  68  96 E10       29.64F
RUSSELLVILLE   TSTM      73  68  84 S7        29.70R
CLINTON        FAIR      73  70  88 VRB6G12   29.70R FOG
$$

ARZ036-300300-
EAST ARKANSAS

CITY           SKY/WX    TMP DP  RH WIND       PRES   REMARKS
WEST MEMPHIS   TSTM      69  69 100 S17       29.81F
$$

ARZ050-053-066-070-073-300300-
SOUTHWEST ARKANSAS

CITY           SKY/WX    TMP DP  RH WIND       PRES   REMARKS
ARKADELPHIA    MOCLDY    74  67  78 S8        29.64R
CAMDEN         CLOUDY    70  64  83 SE10G18   29.64F
TEXARKANA      LGT RAIN  73  72  96 S14G23    29.60F
EL DORADO      LGT RAIN  69  67  93 SE9       29.67R
DE QUEEN       CLOUDY    71  70  96 VRB5      29.57F
$$

ARZ056-057-069-300300-
SOUTHEAST ARKANSAS

CITY           SKY/WX    TMP DP  RH WIND       PRES   REMARKS
PINE BLUFF     CLOUDY    69  66  90 E7        29.72R
STUTTGART      CLOUDY    70  57  64 SE12      29.75S THUNDER
MONTICELLO     MOCLDY    71  65  81 E8        29.72R

$$






USA.gov is the U.S. government's official web portal to all federal, state and local government web resources and services.